Regional Weather Roundup
Issued by NWS

Home | Current Version | Previous Version | Text Only | Print | Product List | Glossary On
Versions: 1 2 3 4 5 6 7 8 9 10 11 12 13 14 15 16 17 18 19 20 21 22 23 24 25 26 27
000
ASUS46 KPQR 261710
RWROR

OREGON REGIONAL WEATHER ROUNDUP
NATIONAL WEATHER SERVICE PORTLAND OR
1000 AM PDT MON JUN 26 2017

NOTE: "FAIR" INDICATES FEW OR NO CLOUDS BELOW 12,000 FEET WITH
NO SIGNIFICANT WEATHER AND/OR OBSTRUCTIONS TO VISIBILITY.

ORZ001>013-261800-
NORTHWEST OREGON


CITY           SKY/WX    TMP DP  RH WIND       PRES   REMARKS
ASTORIA        CLOUDY    59  54  83 SW3       30.03R
NEWPORT        CLOUDY    55  54  94 SW10      30.07R FOG
PORTLAND       CLOUDY    63  55  75 NW6       30.01R
VANCOUVER WA   CLOUDY    63  58  83 VRB3      30.00R
SCAPPOOSE      CLOUDY    63  55  75 NW5       30.00R
HILLSBORO      CLOUDY    63  56  78 NW5       30.00R
AURORA         PTSUNNY   66  54  65 SW7       30.01R
MCMINNVILLE    MOSUNNY   64  53  67 CALM      30.01R
SALEM          MOSUNNY   68  54  60 NW7       29.99R
CORVALLIS      PTSUNNY   66  52  59 CALM      30.01S
EUGENE         PTSUNNY   62  54  74 SW10      30.02R
$$

ORZ021-028-261800-
SOUTHWEST OREGON


CITY           SKY/WX    TMP DP  RH WIND       PRES   REMARKS
NORTH BEND     CLOUDY    61  55  82 W6        30.05S
BROOKINGS      CLOUDY    58  55  90 VRB3      30.06S
ROSEBURG       CLOUDY    64  55  72 VRB3      30.01S
SEXTON SUMMIT  SUNNY     63  55  75 N6        30.05S
GRANTS PASS    FAIR      73  63  68 CALM      29.99S
MEDFORD        SUNNY     78  63  59 VRB3      29.93F
$$

ORZ014>016-041-261800-
COLUMBIA GORGE


CITY           SKY/WX    TMP DP  RH WIND       PRES   REMARKS
TROUTDALE      PTSUNNY   65  55  70 VRB3      30.00R
HOOD RIVER     MOSUNNY   73  54  49 W8G20     29.88S
THE DALLES     SUNNY     78  56  46 N23G32    29.82F
$$

ORZ029>031-041-044-049-050-061>064-502-503-505>511-261800-
EASTERN OREGON


CITY           SKY/WX    TMP DP  RH WIND       PRES   REMARKS
MADRAS         SUNNY     81  50  34 CALM      29.94F
REDMOND        SUNNY     81  45  28 VRB3      29.96F
BEND           SUNNY    N/A N/A N/A VRB3      29.99F
PRINEVILLE     SUNNY     81  50  34 VRB5      29.98F
KLAMATH FALLS  SUNNY     76  45  33 VRB3      30.06F
LAKEVIEW       SUNNY     76  53  44 SE8       30.12F
HERMISTON      SUNNY     89  57  33 W8        29.79F
PENDLETON      SUNNY     88  50  27 CALM      29.83F
JOHN DAY       SUNNY     83  46  26 CALM      29.99F
MEACHAM        SUNNY     83  36  18 CALM      29.98F
LA GRANDE      SUNNY     77  48  36 CALM      29.94F
BAKER CITY     SUNNY     76  47  35 CALM      29.98F
BURNS          SUNNY     78  46  32 S7        30.03F
ROME             N/A     88  39  17 VRB7      29.99F
ONTARIO        SUNNY     80  50  34 CALM      29.93F
$$




USA.gov is the U.S. government's official web portal to all federal, state and local government web resources and services.